Starlink 1134

operational
NORAD ID: 45048 Int'l Des: 2020-006 Owner: SPXS Country: US Constellation: starlink
LEOCIRCULAR

About Starlink 1134

Description loading...

Live Position

Loading 3D Globe...

Upcoming Passes

Altitude History

Altitude vs Time

uPlot chart will show altitude changes over time

Two-Line Element Set

1 45048U 20006E 25297.87285068 .00016521 00000-0 63194-3 0 9999
2 45048 53.0401 155.6330 0012282 116.8822 243.3433 15.26667850316280
Epoch: Oct 24, 2025 • Age: 153 hours

Current Status

Altitude 477.9 km
Velocity 7.63 km/s
Sub-Earth Point 11.59°N, 166.52°E
Launch Date Jan 29, 2020
Age 5.7 years
Type internet

Technical Details

Classification Payload
Mass 260.00 kg
Dry Mass 248.00 kg
Total Mass 260.00 kg
Length 0.20 m
Diameter 2.80 m
Span 9.00 m
Shape Box + pan
Manufacturer SPXS
Bus Type Starlink
Phase Status In Orbit
Owner/State SPXS/US

Large Constellations

Loading constellations...